Flag for Aruba Weather past 2 weeks in Oranjestad, Aruba

Now
82 °F

Passing clouds.


Feels Like: 89 °F
Forecast: 83 / 92 °F
Wind: 17 mph from East

Location: Queen Beatrix Airport - Aruba

Current Time: Sep 3, 2015 at 3:55:54 AM

Latest Report: Sep 3, 2015 at 3:00 AM


Visibility: N/A

Pressure: 29.86 "Hg

Humidity: 79%

Dew point: 75 °F

Location of OranjestadLocation

Historic Weather in Oranjestad — Graph

°F

Oranjestad temperature yesterday

Maximum temperature yesterday: 91 °F (at 2:00 PM)
Minimum temperature yesterday: 82 °F (at 1:30 AM)
Average temperature yesterday: 85 °F

Past Weeks' High & Low Weather Summary

 TemperatureHumidityPressure
High95 °F (Aug 28, 1:00 PM)100% (Aug 25, 10:00 PM)29.98 "Hg (Aug 25, 10:00 PM)
Low48 °F (Aug 31, 9:00 PM)50% (Aug 28, 1:00 PM)29.74 "Hg (Aug 24, 4:00 PM)
Average86 °F74%29.85 "Hg
* Reported Aug 19 2:00 AM — Sep 3 2:00 AM, Oranjestad, Weather by CustomWeather, © 2015

Note: Actual official high and low records may vary slightly from our data, if they occured in-between our weather recording intervals... More about our weather records

Advertising

Oranjestad weather history for previous 24 hours

 ConditionsComfort  
Time TempWeatherWind HumidityBarometerVisibility
2:00 AM
Thu, Sep 3
82 °FPassing clouds.21 mph79%29.86 "HgN/A
1:00 AM84 °FPassing clouds.18 mph79%29.86 "HgN/A
12:00 AM84 °FPassing clouds.21 mph79%29.89 "HgN/A
11:00 PM
Wed, Sep 2
84 °FPassing clouds.18 mph79%29.89 "HgN/A
10:00 PM84 °FPassing clouds.20 mph79%29.89 "HgN/A
9:00 PM84 °FPassing clouds.20 mph79%29.86 "HgN/A
8:00 PM84 °FPassing clouds.20 mph79%29.86 "HgN/A
7:00 PM84 °FPassing clouds.22 mph79%29.83 "HgN/A
6:00 PM86 °FPassing clouds.23 mph75%29.83 "HgN/A
5:00 PM90 °FPassing clouds.22 mph67%29.80 "HgN/A
4:00 PM90 °FScattered clouds.22 mph67%29.83 "HgN/A
3:00 PM91 °FScattered clouds.21 mph63%29.86 "HgN/A
2:00 PM91 °FScattered clouds.18 mph59%29.86 "HgN/A
1:00 PM90 °FScattered clouds.17 mph63%29.89 "HgN/A
12:00 PM86 °FScattered clouds.18 mph79%29.92 "HgN/A
11:00 AM84 °FPartly sunny.18 mph84%29.95 "HgN/A
10:00 AM90 °FScattered clouds.18 mph63%29.92 "HgN/A
9:00 AM88 °FScattered clouds.18 mph70%29.92 "HgN/A
8:00 AM84 °FPassing clouds.18 mph79%29.92 "HgN/A
7:00 AM82 °FPassing clouds.14 mph84%29.89 "HgN/A
6:00 AM82 °FPassing clouds.13 mph84%29.89 "HgN/A
5:00 AM82 °FPassing clouds.13 mph84%29.89 "HgN/A
4:30 AM82 °FWarm.13 mph84%29.89 "HgN/A
4:00 AM82 °FPassing clouds.13 mph84%29.98 "HgN/A
3:30 AM82 °FWarm.14 mph84%29.89 "HgN/A
3:00 AM82 °FPassing clouds.12 mph84%29.89 "HgN/A
Weather by CustomWeather, © 2015

See weather overviewHow to use our weather pages